Location: Tierz
(42.1336°N, 0.3549°W)
Time: 17:50:31
(UTC+00:00)

YAOGAN 6 - Pass Details

Date: 29 October 2020
Orbit: 464 x 504 km, 97.0° (Epoch: 03 December)

Event Time Altitude Azimuth Distance (km) Brightness Sun altitude
Rises 17:42:16 0° 185° (S) 2,564 6.4 -8.7°
Reaches altitude 10° 17:44:26 10° 193° (SSW) 1,693 5.6 -9.1°
Maximum altitude 17:47:51 38° 262° (W) 782 4.4 -9.7°
Drops below altitude 10° 17:51:20 10° 332° (NNW) 1,720 5.6 -10.3°
Sets 17:53:32 0° 341° (NNW) 2,613 6.4 -10.7°
